[[{"header":{"parameterUnit":"m.s-1","parameterCategory":1,"la1":30.2991,"la2":30.254,"lo1":-89.0895,"lo2":-89.0444,"dy":0.0017,"dx":0.0017,"nx":28,"ny":28,"refTime":"2025-01-08T09:00:00:Z","depth":0,"parameterNumber":2,"parameterNumberName":"U-component_of_WINDS"},"data":[0,0,0,0,0,0,0,0,0,0,0,0,0,0,0,0,0,0,0,0,0,0,0,0,0,0,0,0,0,0,0,0,0,0,0,0,0,0,0,0,0,0,0,0,0,0,0,0,0,0,0,0,0,0,0,0,0,0,0.597,0.597,0,0.5985,0.5986,0.5986,0.5991,0.5991,0.599,0.599,0.6006,0.6007,0.6007,0,0,0,0,0,0,0,0,0,0,0,0,0,0.5945,0.5946,0.597,0.597,0.597,0.5985,0.5986,0.5986,0.5991,0.5991,0.599,0.599,0.6006,0.6006,0.6007,0,0,0,0,0,0,0,0,0,0,0,0,0,0.5958,0.5946,0.597,0.5974,0.5975,0.5985,0.5986,0.5986,0.5991,0.5991,0.599,0.599,0.6006,0.6006,0.6007,0.6014,0,0,0.6009,0.601,0,0,0,0,0,0,0,0,0.5957,0.5959,0.5974,0.5974,0.5975,0.5986,0.5983,0.5995,0.5991,0.5985,0.599,0.599,0.5999,0.6001,0.6004,0.6015,0.6015,0.6009,0.601,0.601,0.601,0,0,0,0,0,0,0,0.5956,0.5958,0.5976,0.5974,0.5975,0.5976,0.5978,0.5985,0.5992,0.5985,0.5986,0.5987,0.6,0.6003,0.6004,0.6015,0.6009,0.601,0.6011,0.6011,0.6034,0.6034,0,0,0,0,0,0,0.5955,0.5957,0.5975,0.5976,0.5966,0.5977,0.5978,0.5982,0.5992,0.5994,0.5987,0.5988,0.6002,0.6003,0.6005,0.6014,0.601,0.6011,0.6011,0.6034,0.6034,0.6034,0,0,0,0,0,0,0.5954,0.5956,0.5975,0.5967,0.597,0.5977,0.5982,0.5983,0.5986,0.5994,0.5996,0.5989,0.6002,0.6004,0.6012,0.6015,0.6011,0.6012,0.6033,0.6034,0.6034,0.6032,0,0,0,0,0,0,0.5953,0.5956,0.5958,0.5967,0.597,0.5981,0.5982,0.5983,0.5987,0.5988,0.5996,0.5998,0.6002,0.6011,0.6013,0.6015,0.6012,0.6033,0.6034,0.6034,0.6032,0.6032,0.6032,0,0,0,0,0,0.5952,0.5957,0.5958,0.596,0.5973,0.5981,0.5983,0.5988,0.5988,0.599,0.5996,0.5997,0.6014,0.6012,0.6014,0.6017,0.6033,0.6033,0.6034,0.6031,0.6032,0.6032,0,0,0,0,0,0,0.5947,0.5958,0.596,0.5967,0.5973,0.5982,0.5986,0.5988,0.5995,0.5994,0.6,0.6002,0.601,0.6014,0.6011,0.6024,0.6024,0.6024,0.6021,0.6022,0.6022,0.6021,0.6013,0,0,0,0,0,0.5947,0.5953,0.5962,0.5968,0.5971,0.5978,0.5982,0.5985,0.5992,0.5994,0.6,0.6007,0.6014,0.6018,0.6025,0.6033,0.6035,0.6036,0.6036,0.6036,0.6037,0.6042,0.6043,0.6035,0.6035,0.6035,0,0,0.5947,0.5953,0.5957,0.5967,0.5972,0.5979,0.598,0.5986,0.5991,0.5995,0.6003,0.6008,0.6016,0.6024,0.6028,0.6028,0.604,0.6037,0.6037,0.6037,0.6043,0.6043,0.6044,0.6036,0.6035,0.6035,0,0,0.5949,0.5955,0.596,0.5966,0.5974,0.5979,0.598,0.5989,0.5993,0.6001,0.6005,0.6011,0.6022,0.6028,0.6032,0.6038,0.6041,0.604,0.6042,0.6047,0.6048,0.6048,0.6051,0.6052,0.6041,0.6041,0.6041,0,0.5948,0.5957,0.5963,0.5969,0.5974,0.5979,0.5985,0.599,0.6,0.6003,0.6003,0.6018,0.6024,0.6034,0.6036,0.6039,0.6041,0.6039,0.6047,0.6048,0.6048,0.6051,0.6052,0.6041,0.6041,0.6041,0.6041,0,0.5955,0.5962,0.5966,0.5975,0.5981,0.5987,0.5994,0.5999,0.6002,0.6007,0.6016,0.6023,0.6032,0.6034,0.6037,0.6045,0.6045,0.6046,0.6045,0.6049,0.6051,0.6052,0.6041,0.6041,0.6041,0.6041,0,0,0.5954,0.5968,0.5969,0.5974,0.5984,0.599,0.5997,0.6005,0.601,0.6017,0.6023,0.6033,0.6034,0.6039,0.6043,0.6048,0.6053,0.6048,0.6049,0.6049,0.6063,0.6062,0.6063,0.6055,0.6055,0.6055,0.6063,0,0.5958,0.597,0.5976,0.5986,0.5993,0.5998,0.6004,0.6011,0.6017,0.6023,0.6029,0.6036,0.6037,0.6041,0.6045,0.6052,0.6056,0.6051,0.6061,0.6061,0.6059,0.6065,0.6063,0.607,0.6064,0.6064,0.6064,0,0.5964,0.5971,0.5982,0.5992,0.5995,0.6001,0.601,0.6016,0.6025,0.6028,0.6035,0.6039,0.6047,0.6046,0.6058,0.6054,0.6059,0.6063,0.6063,0.6064,0.6063,0.6066,0.6072,0.6073,0.6065,0.6065,0.6065,0,0.5962,0.5975,0.5983,0.5988,0.6,0.6004,0.6009,0.6017,0.6023,0.6031,0.6034,0.6043,0.6048,0.6055,0.6062,0.606,0.6073,0.6072,0.6076,0.6076,0.6078,0.6078,0.6085,0.6081,0.6081,0.6081,0.6081,0,0.5966,0.5972,0.5983,0.5988,0.5996,0.6003,0.601,0.6016,0.6024,0.6031,0.6036,0.6042,0.605,0.6058,0.6063,0.6072,0.6074,0.6078,0.6079,0.6077,0.6077,0.608,0.608,0.6081,0.6081,0.6081,0.6081,0,0.5965,0.5973,0.5982,0.5993,0.5996,0.6001,0.6011,0.6017,0.6023,0.6031,0.6033,0.6043,0.6052,0.6059,0.6071,0.6075,0.6085,0.6086,0.6082,0.6082,0.6086,0.6085,0.6095,0.6097,0.6092,0.6092,0.6092,0,0.5967,0.5972,0.5984,0.5989,0.5994,0.6002,0.6008,0.6015,0.6021,0.6032,0.6036,0.6046,0.6054,0.6068,0.6076,0.6086,0.6088,0.6091,0.6089,0.6087,0.6088,0.6088,0.6088,0.609,0.6091,0.6091,0.6091,0,0.5969,0.5973,0.5981,0.599,0.5997,0.6005,0.6013,0.6017,0.6026,0.6032,0.6042,0.6048,0.6061,0.607,0.6081,0.6087,0.609,0.6091,0.6093,0.6091,0.6088,0.609,0.6082,0.6091,0.6091,0.6091,0.6091,0.6091,0.597,0.5975,0.5985,0.5994,0.6001,0.6008,0.6014,0.6021,0.6029,0.604,0.6044,0.6054,0.6064,0.6079,0.6085,0.6093,0.6093,0.6095,0.6096,0.6096,0.6096,0.6087,0.6095,0.6095,0.6095,0.6095,0.6095,0,0.5973,0.598,0.5988,0.5999,0.6006,0.6009,0.6019,0.6025,0.6033,0.6042,0.605,0.6062,0.6072,0.6081,0.6091,0.6096,0.6098,0.6099,0.6098,0.61,0.6095,0.6093,0.6097,0.6097,0.6097,0.6097,0.6097,0.6097,0.5975,0.5984,0.5989,0.6002,0.6009,0.6019,0.6024,0.6032,0.6039,0.6051,0.606,0.6066,0.6075,0.6086,0.6096,0.6098,0.6102,0.6102,0.6105,0.61,0.61,0.6099,0.6097,0.6102,0.6103,0.6109,0.6109,0.6109]},{"header":{"parameterUnit":"m.s-1","parameterCategory":1,"la1":30.2991,"la2":30.254,"lo1":-89.0895,"lo2":-89.0444,"dy":0.0017,"dx":0.0017,"nx":28,"ny":28,"refTime":"2025-01-08T09:00:00:Z","depth":0,"parameterNumber":3,"parameterNumberName":"V-component_of_WINDS"},"data":[0,0,0,0,0,0,0,0,0,0,0,0,0,0,0,0,0,0,0,0,0,0,0,0,0,0,0,0,0,0,0,0,0,0,0,0,0,0,0,0,0,0,0,0,0,0,0,0,0,0,0,0,0,0,0,0,0,0,-4.6767,-4.6768,0,-4.6837,-4.6837,-4.6838,-4.6827,-4.6826,-4.6824,-4.6823,-4.6889,-4.6892,-4.6895,0,0,0,0,0,0,0,0,0,0,0,0,0,-4.6622,-4.6625,-4.6767,-4.6768,-4.6769,-4.6836,-4.6837,-4.6838,-4.6827,-4.6825,-4.6824,-4.6823,-4.6888,-4.6891,-4.6895,0,0,0,0,0,0,0,0,0,0,0,0,0,-4.6687,-4.6626,-4.6767,-4.6772,-4.6773,-4.6836,-4.6837,-4.6839,-4.6827,-4.6825,-4.6824,-4.6822,-4.6887,-4.6891,-4.6895,-4.6957,0,0,-4.6908,-4.691,0,0,0,0,0,0,0,0,-4.6684,-4.6693,-4.677,-4.6772,-4.6773,-4.6821,-4.681,-4.6878,-4.6828,-4.6806,-4.6823,-4.6821,-4.6868,-4.6873,-4.689,-4.696,-4.6963,-4.6909,-4.6911,-4.6913,-4.6914,0,0,0,0,0,0,0,-4.6679,-4.669,-4.6795,-4.6771,-4.6773,-4.6769,-4.6776,-4.6823,-4.6846,-4.6808,-4.6807,-4.6816,-4.6868,-4.6886,-4.6891,-4.6964,-4.6909,-4.6912,-4.6915,-4.6917,-4.709,-4.7092,0,0,0,0,0,0,-4.6674,-4.6686,-4.6792,-4.6797,-4.6723,-4.6773,-4.6781,-4.6807,-4.6845,-4.685,-4.6818,-4.6815,-4.6879,-4.6886,-4.6894,-4.697,-4.6913,-4.6917,-4.692,-4.7088,-4.709,-4.7093,0,0,0,0,0,0,-4.6671,-4.6684,-4.679,-4.6741,-4.6755,-4.6778,-4.6807,-4.681,-4.6828,-4.6853,-4.6856,-4.6832,-4.6878,-4.6888,-4.6942,-4.6972,-4.6919,-4.6923,-4.7086,-4.7089,-4.7092,-4.7122,0,0,0,0,0,0,-4.6667,-4.6683,-4.6707,-4.6742,-4.6757,-4.6838,-4.6809,-4.6812,-4.6836,-4.6834,-4.6867,-4.6871,-4.6878,-4.6936,-4.6946,-4.6977,-4.6926,-4.7083,-4.7087,-4.7091,-4.7119,-4.7126,-4.7132,0,0,0,0,0,-4.6662,-4.6711,-4.6708,-4.6721,-4.6788,-4.684,-4.6848,-4.6857,-4.6838,-4.6863,-4.6879,-4.687,-4.6967,-4.6942,-4.6953,-4.6986,-4.7081,-4.7086,-4.709,-4.7116,-4.7125,-4.7132,0,0,0,0,0,0,-4.6677,-4.6716,-4.6713,-4.6776,-4.6805,-4.6838,-4.6869,-4.6865,-4.6899,-4.6895,-4.6902,-4.691,-4.6966,-4.6981,-4.6952,-4.7048,-4.7021,-4.7028,-4.7037,-4.7045,-4.7052,-4.7047,-4.693,0,0,0,0,0,-4.6688,-4.6728,-4.6759,-4.6811,-4.6826,-4.6845,-4.6868,-4.6872,-4.6902,-4.6913,-4.6933,-4.6961,-4.6999,-4.7022,-4.7058,-4.7121,-4.7128,-4.7149,-4.7156,-4.7161,-4.7167,-4.7203,-4.7213,-4.7108,-4.7108,-4.7108,0,0,-4.671,-4.6737,-4.6761,-4.6815,-4.6838,-4.6879,-4.6856,-4.6899,-4.6929,-4.6919,-4.6973,-4.6989,-4.702,-4.708,-4.7107,-4.7094,-4.7198,-4.7167,-4.7171,-4.7174,-4.7209,-4.7219,-4.7228,-4.7111,-4.711,-4.711,0,0,-4.6772,-4.6796,-4.6843,-4.6868,-4.6904,-4.6916,-4.6928,-4.6962,-4.6973,-4.7027,-4.7022,-4.7057,-4.712,-4.7143,-4.7163,-4.7237,-4.723,-4.7248,-4.7283,-4.7318,-4.7327,-4.7334,-4.7361,-4.7371,-4.7254,-4.7254,-4.7254,0,-4.6795,-4.6857,-4.6867,-4.6912,-4.6937,-4.6933,-4.698,-4.7003,-4.7048,-4.7064,-4.7049,-4.7131,-4.7151,-4.7217,-4.7235,-4.7251,-4.7265,-4.7244,-4.7325,-4.7332,-4.7339,-4.7366,-4.7376,-4.7256,-4.7256,-4.7255,-4.7255,0,-4.6884,-4.6928,-4.6961,-4.7008,-4.7036,-4.7082,-4.7098,-4.7125,-4.7127,-4.7141,-4.7197,-4.7222,-4.7263,-4.7279,-4.728,-4.7345,-4.7337,-4.7323,-4.7296,-4.7351,-4.7376,-4.7386,-4.7259,-4.7258,-4.7257,-4.7257,0,0,-4.6957,-4.701,-4.7022,-4.7045,-4.7085,-4.7118,-4.7164,-4.7207,-4.723,-4.7261,-4.73,-4.7355,-4.7344,-4.7367,-4.737,-4.7401,-4.7459,-4.7384,-4.7385,-4.7398,-4.7534,-4.7545,-4.7556,-4.7455,-4.7457,-4.7458,-4.7532,0,-4.7023,-4.7107,-4.7118,-4.7191,-4.7232,-4.723,-4.727,-4.7298,-4.7313,-4.7349,-4.7364,-4.7403,-4.7385,-4.7399,-4.7429,-4.7446,-4.7487,-4.7441,-4.7491,-4.7493,-4.7484,-4.7569,-4.758,-4.7648,-4.7541,-4.7543,-4.7544,0,-4.7112,-4.7149,-4.7228,-4.7265,-4.7282,-4.7318,-4.7359,-4.7393,-4.7426,-4.7434,-4.7462,-4.7462,-4.7509,-4.748,-4.7545,-4.7514,-4.7535,-4.7546,-4.7549,-4.7555,-4.7522,-4.7577,-4.7669,-4.768,-4.7559,-4.7558,-4.7557,0,-4.7159,-4.7228,-4.7285,-4.7303,-4.7347,-4.7373,-4.7392,-4.7424,-4.7449,-4.7484,-4.7501,-4.754,-4.7562,-4.7592,-4.7603,-4.7581,-4.7667,-4.7639,-4.7676,-4.7676,-4.7694,-4.7693,-4.7792,-4.7706,-4.7706,-4.7706,-4.7706,0,-4.7233,-4.7281,-4.7307,-4.7341,-4.7395,-4.7407,-4.746,-4.7478,-4.7506,-4.7544,-4.7543,-4.7578,-4.759,-4.7627,-4.7636,-4.7689,-4.7698,-4.7706,-4.7708,-4.7707,-4.7706,-4.7721,-4.7717,-4.7709,-4.7708,-4.7708,-4.7707,0,-4.7294,-4.7313,-4.7375,-4.7413,-4.7424,-4.7462,-4.7494,-4.7527,-4.7542,-4.759,-4.7601,-4.7624,-4.7668,-4.7682,-4.7733,-4.7739,-4.7802,-4.7799,-4.7792,-4.7792,-4.7828,-4.7825,-4.7941,-4.7957,-4.786,-4.7861,-4.7862,0,-4.7341,-4.7378,-4.7421,-4.7448,-4.7469,-4.7511,-4.7538,-4.7551,-4.7579,-4.762,-4.7649,-4.7692,-4.7728,-4.7798,-4.7818,-4.7858,-4.7857,-4.7894,-4.7862,-4.7861,-4.7859,-4.7857,-4.7861,-4.79,-4.7901,-4.7902,-4.7903,0,-4.7421,-4.743,-4.747,-4.7514,-4.7547,-4.7581,-4.7614,-4.7635,-4.7654,-4.7685,-4.7731,-4.7759,-4.7813,-4.7857,-4.7898,-4.7916,-4.7913,-4.7913,-4.7924,-4.7923,-4.7918,-4.7923,-4.7809,-4.791,-4.791,-4.7909,-4.7909,-4.7908,-4.7477,-4.7512,-4.7548,-4.7593,-4.762,-4.7652,-4.7686,-4.7706,-4.7746,-4.7793,-4.7798,-4.7847,-4.788,-4.7935,-4.7956,-4.7994,-4.7984,-4.7999,-4.8003,-4.8007,-4.801,-4.7912,-4.8002,-4.8001,-4.8001,-4.8001,-4.8001,0,-4.7559,-4.7583,-4.7625,-4.7673,-4.7709,-4.7705,-4.7742,-4.7771,-4.7816,-4.7848,-4.7884,-4.7937,-4.798,-4.8004,-4.8047,-4.8073,-4.8073,-4.8084,-4.8082,-4.8087,-4.8017,-4.8004,-4.8084,-4.8084,-4.8084,-4.8084,-4.8084,-4.8084,-4.7606,-4.7665,-4.7677,-4.7749,-4.7772,-4.7823,-4.7845,-4.7874,-4.79,-4.7961,-4.7997,-4.8014,-4.8042,-4.8088,-4.8126,-4.8132,-4.8148,-4.8161,-4.8166,-4.81,-4.8092,-4.8084,-4.8072,-4.8164,-4.8164,-4.8233,-4.8234,-4.8234]}]]